YO2LC Weather Reports


time (UTC)temp
F
wind
direction
speed
knots
gust
knots
rain 1hr
in
rain 24hr
in
rain mn
in
humidity
%
barometer
mb
20260507210116 63 170 0.0 0.0 0.00 0.00 0.00 74 1015.8
20260507205553 63 170 0.0 0.0 0.00 0.00 0.00 73 1015.7
20260507205053 62 170 0.0 0.0 0.00 0.00 0.00 74 1015.8
20260507204559 62 170 0.0 0.0 0.00 0.00 0.00 76 1015.6
20260507204055 62 170 0.0 0.0 0.00 0.00 0.00 76 1015.6
20260507203550 63 170 0.0 0.0 0.00 0.00 0.00 74 1015.5
20260507203056 63 170 0.0 0.0 0.00 0.00 0.00 74 1015.5
20260507202550 63 170 0.0 0.0 0.00 0.00 0.00 72 1015.6
20260507202046 63 170 0.0 0.0 0.00 0.00 0.00 73 1015.7
20260507201546 63 170 0.0 0.0 0.00 0.00 0.00 73 1015.8
20260507201045 63 170 0.0 0.0 0.00 0.00 0.00 72 1015.7
20260507200546 63 170 0.0 0.0 0.00 0.00 0.00 72 1015.6
20260507200055 63 170 0.0 0.0 0.00 0.00 0.00 72 1015.6
20260507195546 64 170 0.0 0.0 0.00 0.00 0.00 72 1015.6
20260507195042 64 170 0.0 0.0 0.00 0.00 0.00 72 1015.5
20260507194542 64 170 0.0 0.0 0.00 0.00 0.00 71 1015.6
20260507194042 65 170 0.0 0.0 0.00 0.00 0.00 70 1015.6
20260507193540 66 170 0.0 0.0 0.00 0.00 0.00 67 1015.6
20260507193104 66 170 0.0 0.0 0.00 0.00 0.00 64 1015.5
20260507192538 66 170 0.0 0.0 0.00 0.00 0.00 63 1015.5
20260507192040 66 170 0.0 0.0 0.00 0.00 0.00 63 1015.6
20260507191537 66 170 0.0 0.0 0.00 0.00 0.00 63 1015.5
20260507191038 66 170 0.0 0.0 0.00 0.00 0.00 63 1015.4
20260507190537 67 170 0.0 0.0 0.00 0.00 0.00 63 1015.5
20260507190039 67 170 0.0 0.0 0.00 0.00 0.00 62 1015.4
20260507185535 67 170 0.0 0.0 0.00 0.00 0.00 62 1015.4
20260507185035 67 170 0.0 0.0 0.00 0.00 0.00 61 1015.3
20260507184534 68 170 0.0 0.0 0.00 0.00 0.00 60 1015.2
20260507184033 68 170 0.0 0.0 0.00 0.00 0.00 60 1015.2
20260507183533 68 170 0.0 0.0 0.00 0.00 0.00 60 1015.1
20260507183039 68 170 0.0 0.0 0.00 0.00 0.00 60 1015.0
20260507182532 68 170 0.0 0.0 0.00 0.00 0.00 60 1015.0
20260507182031 68 170 0.0 0.0 0.00 0.00 0.00 60 1015.0
20260507181530 68 170 0.0 0.0 0.00 0.00 0.00 60 1014.9
20260507181030 68 170 0.0 0.0 0.00 0.00 0.00 60 1014.9
20260507180530 68 170 0.0 0.0 0.00 0.00 0.00 61 1014.9
20260507180029 68 170 0.0 0.0 0.00 0.00 0.00 61 1014.8
20260507175528 68 170 0.0 0.0 0.00 0.00 0.00 60 1014.8
20260507175031 68 170 0.0 0.0 0.00 0.00 0.00 60 1014.8
20260507174527 68 170 0.0 0.0 0.00 0.00 0.00 60 1014.8
20260507174026 68 170 0.0 0.0 0.00 0.00 0.00 60 1014.7
20260507173526 68 170 0.0 0.0 0.00 0.00 0.00 60 1014.7
20260507173026 69 170 0.0 0.0 0.00 0.00 0.00 60 1014.6
20260507172525 69 170 0.0 0.0 0.00 0.00 0.00 60 1014.6
20260507172024 69 170 0.0 0.0 0.00 0.00 0.00 60 1014.5
20260507171524 69 170 0.0 0.0 0.00 0.00 0.00 60 1014.5
20260507171026 70 170 0.0 0.0 0.00 0.00 0.00 60 1014.4
20260507170523 70 170 0.0 0.0 0.00 0.00 0.00 60 1014.5
20260507170022 70 170 0.0 0.0 0.00 0.00 0.00 60 1014.4
20260507165523 71 170 0.0 0.0 0.00 0.00 0.00 58 1014.3
20260507165025 71 170 0.0 0.0 0.00 0.00 0.00 58 1014.3
20260507164520 72 170 0.0 0.0 0.00 0.00 0.00 57 1014.3
20260507164023 72 170 0.0 0.0 0.00 0.00 0.00 57 1014.1
20260507163519 72 170 0.0 0.0 0.00 0.00 0.00 56 1014.1
20260507163017 73 170 0.0 0.0 0.00 0.00 0.00 56 1014.1
20260507162518 73 170 0.0 0.0 0.00 0.00 0.00 55 1014.3
20260507162018 73 170 0.0 0.0 0.00 0.00 0.00 55 1014.3
20260507161519 73 170 0.0 0.0 0.00 0.00 0.00 56 1014.3
20260507161012 73 170 0.0 0.0 0.00 0.00 0.00 56 1014.3
20260507160514 74 170 0.0 0.0 0.00 0.00 0.00 55 1014.2
20260507160027 74 170 0.0 0.0 0.00 0.00 0.00 56 1014.2
20260507155514 74 170 0.0 0.0 0.00 0.00 0.00 55 1014.1
20260507155010 74 170 0.0 0.0 0.00 0.00 0.00 55 1014.3
20260507154513 74 170 0.0 0.0 0.00 0.00 0.00 56 1014.1
20260507154010 73 170 0.0 0.0 0.00 0.00 0.00 55 1014.2
20260507153508 73 170 0.0 0.0 0.00 0.00 0.00 56 1014.2
20260507153108 73 170 0.0 0.0 0.00 0.00 0.00 56 1014.2
20260507152506 73 170 0.0 0.0 0.00 0.00 0.00 56 1014.2
20260507152009 73 170 0.0 0.0 0.00 0.00 0.00 56 1014.3
20260507151507 73 170 0.0 0.0 0.00 0.00 0.00 56 1014.4
20260507151006 73 170 0.0 0.0 0.00 0.00 0.00 55 1014.5
20260507150505 73 170 0.0 0.0 0.00 0.00 0.00 55 1014.4
20260507150006 73 170 0.0 0.0 0.00 0.00 0.00 56 1014.6
20260507145505 73 170 0.0 0.0 0.00 0.00 0.00 56 1014.5
20260507145002 72 170 0.0 0.0 0.00 0.00 0.00 56 1014.6
20260507144502 72 170 0.0 0.0 0.00 0.00 0.00 55 1014.6
20260507144001 73 170 0.0 0.0 0.00 0.00 0.00 55 1014.7
20260507143501 73 170 0.0 0.0 0.00 0.00 0.00 54 1014.7
20260507143115 73 170 0.0 0.0 0.00 0.00 0.00 54 1014.6
20260507142600 73 170 0.0 0.0 0.00 0.00 0.00 54 1014.6
20260507142058 73 170 0.0 0.0 0.00 0.00 0.00 54 1014.5
20260507141618 73 170 0.0 0.0 0.00 0.00 0.00 54 1014.6
20260507141056 73 170 0.0 0.0 0.00 0.00 0.00 54 1014.5
20260507140557 74 170 0.0 0.0 0.00 0.00 0.00 53 1014.5
20260507135557 75 170 0.0 0.0 0.00 0.00 0.00 53 1014.4
20260507135053 75 170 0.0 0.0 0.00 0.00 0.00 54 1014.3
20260507134601 74 170 0.0 0.0 0.00 0.00 0.00 56 1014.5
20260507134051 73 170 0.0 0.0 0.00 0.00 0.00 57 1014.6
20260507133550 73 170 0.0 0.0 0.00 0.00 0.00 57 1014.6
20260507133051 73 170 0.0 0.0 0.00 0.00 0.00 57 1014.8
20260507132549 73 170 0.0 0.0 0.00 0.00 0.00 57 1014.7
20260507132048 73 170 0.0 0.0 0.00 0.00 0.00 58 1014.8
20260507131549 73 170 0.0 0.0 0.00 0.00 0.00 59 1014.9
20260507131048 72 170 0.0 0.0 0.00 0.00 0.00 58 1014.8
20260507130545 73 170 0.0 0.0 0.00 0.00 0.00 57 1014.9
20260507130045 73 170 0.0 0.0 0.00 0.00 0.00 58 1014.9
20260507125545 73 170 0.0 0.0 0.00 0.00 0.00 57 1014.9
20260507125045 73 170 0.0 0.0 0.00 0.00 0.00 57 1014.9
20260507124544 73 170 0.0 0.0 0.00 0.00 0.00 56 1015.0
20260507124043 73 170 0.0 0.0 0.00 0.00 0.00 55 1014.9
20260507123544 74 170 0.0 0.0 0.00 0.00 0.00 54 1015.1
20260507123046 75 170 0.0 0.0 0.00 0.00 0.00 53 1015.0
20260507122540 75 170 0.0 0.0 0.00 0.00 0.00 53 1015.0
20260507122040 75 170 0.0 0.0 0.00 0.00 0.00 52 1015.0
20260507121539 75 170 0.0 0.0 0.00 0.00 0.00 51 1015.1
20260507121040 75 170 0.0 0.0 0.00 0.00 0.00 51 1015.1
20260507120536 75 170 0.0 0.0 0.00 0.00 0.00 53 1015.1
20260507120036 74 170 0.0 0.0 0.00 0.00 0.00 55 1015.1
20260507115533 74 170 0.0 0.0 0.00 0.00 0.00 55 1015.1
20260507115031 74 170 0.0 0.0 0.00 0.00 0.00 55 1015.2
20260507114530 73 170 0.0 0.0 0.00 0.00 0.00 55 1015.2
20260507114038 73 170 0.0 0.0 0.00 0.00 0.00 55 1015.3
20260507113528 73 170 0.0 0.0 0.00 0.00 0.00 55 1015.3
20260507113030 73 170 0.0 0.0 0.00 0.00 0.00 55 1015.3
20260507112527 73 170 0.0 0.0 0.00 0.00 0.00 53 1015.3
20260507112027 73 170 0.0 0.0 0.00 0.00 0.00 53 1015.4
20260507111526 73 170 0.0 0.0 0.00 0.00 0.00 52 1015.4
20260507111024 73 170 0.0 0.0 0.00 0.00 0.00 51 1015.3
20260507110524 73 170 0.0 0.0 0.00 0.00 0.00 50 1015.5
20260507110030 73 170 0.0 0.0 0.00 0.00 0.00 50 1015.6
20260507105525 73 170 0.0 0.0 0.00 0.00 0.00 49 1015.6
20260507105023 72 170 0.0 0.0 0.00 0.00 0.00 49 1015.6
20260507104522 72 170 0.0 0.0 0.00 0.00 0.00 50 1015.6
20260507104021 72 170 0.0 0.0 0.00 0.00 0.00 49 1015.7
20260507103520 72 170 0.0 0.0 0.00 0.00 0.00 48 1015.7
20260507103023 72 170 0.0 0.0 0.00 0.00 0.00 49 1015.8
20260507102519 72 170 0.0 0.0 0.00 0.00 0.00 52 1015.8
20260507102018 72 170 0.0 0.0 0.00 0.00 0.00 53 1015.7
20260507101518 71 170 0.0 0.0 0.00 0.00 0.00 52 1015.8
20260507101018 71 170 0.0 0.0 0.00 0.00 0.00 51 1015.9
20260507100518 71 170 0.0 0.0 0.00 0.00 0.00 52 1015.9
20260507100016 72 170 0.0 0.0 0.00 0.00 0.00 52 1016.0
20260507095515 72 170 0.0 0.0 0.00 0.00 0.00 54 1016.0
20260507095015 72 170 0.0 0.0 0.00 0.00 0.00 54 1015.9
20260507094515 71 170 0.0 0.0 0.00 0.00 0.00 54 1015.9
20260507094014 71 170 0.0 0.0 0.00 0.00 0.00 54 1016.0
20260507093513 71 170 0.0 0.0 0.00 0.00 0.00 55 1016.0
20260507093013 71 170 0.0 0.0 0.00 0.00 0.00 55 1016.0
20260507092513 71 170 0.0 0.0 0.00 0.00 0.00 59 1016.0
20260507092011 71 170 0.0 0.0 0.00 0.00 0.00 57 1016.0
20260507091511 71 170 0.0 0.0 0.00 0.00 0.00 59 1016.1
20260507091010 71 170 0.0 0.0 0.00 0.00 0.00 59 1016.0
20260507090510 71 170 0.0 0.0 0.00 0.00 0.00 59 1016.0
20260507090011 71 170 0.0 0.0 0.00 0.00 0.00 60 1016.0
20260507085508 71 170 0.0 0.0 0.00 0.00 0.00 59 1016.0
20260507085008 71 170 0.0 0.0 0.00 0.00 0.00 57 1016.0
20260507084512 71 170 0.0 0.0 0.00 0.00 0.00 57 1015.9
20260507084006 71 170 0.0 0.0 0.00 0.00 0.00 59 1015.9
20260507083505 71 170 0.0 0.0 0.00 0.00 0.00 58 1016.0
20260507083005 71 170 0.0 0.0 0.00 0.00 0.00 60 1015.9
20260507082504 71 170 0.0 0.0 0.00 0.00 0.00 60 1015.9
20260507082003 70 170 0.0 0.0 0.00 0.00 0.00 62 1015.9
20260507081503 70 170 0.0 0.0 0.00 0.00 0.00 62 1016.0
20260507081003 69 170 0.0 0.0 0.00 0.00 0.00 62 1016.0
20260507080504 69 170 0.0 0.0 0.00 0.00 0.00 63 1016.0
20260507080002 68 170 0.0 0.0 0.00 0.00 0.00 63 1016.0
20260507075502 68 170 0.0 0.0 0.00 0.00 0.00 64 1016.0
20260507075102 68 170 0.0 0.0 0.00 0.00 0.00 65 1016.0
20260507074601 67 170 0.0 0.0 0.00 0.00 0.00 66 1016.1
20260507074058 67 170 0.0 0.0 0.00 0.00 0.00 66 1016.0
20260507073557 66 170 0.0 0.0 0.00 0.00 0.00 65 1015.9
20260507073056 66 170 0.0 0.0 0.00 0.00 0.00 66 1015.9
20260507072556 66 170 0.0 0.0 0.00 0.00 0.00 67 1015.9
20260507072055 66 170 0.0 0.0 0.00 0.00 0.00 66 1015.9
20260507071554 66 170 0.0 0.0 0.00 0.00 0.00 66 1015.9
20260507071054 66 170 0.0 0.0 0.00 0.00 0.00 65 1016.0
20260507070554 66 170 0.0 0.0 0.00 0.00 0.00 65 1016.0
20260507070054 66 170 0.0 0.0 0.00 0.00 0.00 65 1015.9
20260507065551 66 170 0.0 0.0 0.00 0.00 0.00 65 1015.8
20260507065050 66 170 0.0 0.0 0.00 0.00 0.00 65 1015.8
20260507064606 66 170 0.0 0.0 0.00 0.00 0.00 65 1015.8
20260507064050 66 170 0.0 0.0 0.00 0.00 0.00 66 1015.8
20260507063549 67 170 0.0 0.0 0.00 0.00 0.00 66 1015.8
20260507063053 66 170 0.0 0.0 0.00 0.00 0.00 66 1015.8
20260507062547 66 170 0.0 0.0 0.00 0.00 0.00 65 1015.8
20260507062047 66 170 0.0 0.0 0.00 0.00 0.00 65 1015.8
20260507061546 66 170 0.0 0.0 0.00 0.00 0.00 65 1015.7
20260507061044 66 170 0.0 0.0 0.00 0.00 0.00 65 1015.6
20260507060543 66 170 0.0 0.0 0.00 0.00 0.00 65 1015.6
20260507060043 65 170 0.0 0.0 0.00 0.00 0.00 65 1015.6
20260507055541 65 170 0.0 0.0 0.00 0.00 0.00 67 1015.4
20260507055041 65 170 0.0 0.0 0.00 0.00 0.00 67 1015.5
20260507054542 64 170 0.0 0.0 0.00 0.00 0.00 70 1015.4
20260507054140 64 170 0.0 0.0 0.00 0.00 0.00 72 1015.3
20260507053539 64 170 0.0 0.0 0.00 0.00 0.00 74 1015.4
20260507053038 64 170 0.0 0.0 0.00 0.00 0.00 73 1015.5
20260507052538 64 170 0.0 0.0 0.00 0.00 0.00 72 1015.4
20260507052036 64 170 0.0 0.0 0.00 0.00 0.00 73 1015.3
20260507051535 64 170 0.0 0.0 0.00 0.00 0.00 73 1015.3
20260507051034 64 170 0.0 0.0 0.00 0.00 0.00 73 1015.2
20260507050532 64 170 0.0 0.0 0.00 0.00 0.00 72 1015.1
20260507050038 64 170 0.0 0.0 0.00 0.00 0.00 71 1015.1
20260507045534 64 170 0.0 0.0 0.00 0.00 0.00 70 1015.0
20260507045030 64 170 0.0 0.0 0.00 0.00 0.00 70 1015.0
20260507044529 64 170 0.0 0.0 0.00 0.00 0.00 71 1014.9
20260507044028 64 170 0.0 0.0 0.00 0.00 0.00 70 1014.9
20260507043527 63 170 0.0 0.0 0.00 0.00 0.00 70 1014.9
20260507043027 64 170 0.0 0.0 0.00 0.00 0.00 70 1014.8
20260507042525 64 170 0.0 0.0 0.00 0.00 0.00 70 1014.8
20260507042025 64 170 0.0 0.0 0.00 0.00 0.00 69 1014.7
20260507041537 64 170 0.0 0.0 0.00 0.00 0.00 68 1014.7
20260507041023 64 170 0.0 0.0 0.00 0.00 0.00 68 1014.7
20260507040524 64 170 0.0 0.0 0.00 0.00 0.00 67 1014.6
20260507040020 64 170 0.0 0.0 0.00 0.00 0.00 67 1014.7
20260507035519 64 170 0.0 0.0 0.00 0.00 0.00 67 1014.6
20260507035020 64 170 0.0 0.0 0.00 0.00 0.00 66 1014.5
20260507034517 64 170 0.0 0.0 0.00 0.00 0.00 65 1014.4
20260507034015 64 170 0.0 0.0 0.00 0.00 0.00 65 1014.3
20260507033514 64 170 0.0 0.0 0.00 0.00 0.00 65 1014.2
20260507033014 65 170 0.0 0.0 0.00 0.00 0.00 64 1014.2
20260507032512 65 170 0.0 0.0 0.00 0.00 0.00 64 1014.2
20260507032010 65 170 0.0 0.0 0.00 0.00 0.00 64 1014.1
20260507031509 65 170 0.0 0.0 0.00 0.00 0.00 63 1014.1
20260507031008 65 170 0.0 0.0 0.00 0.00 0.00 63 1014.2
20260507030507 65 170 0.0 0.0 0.00 0.00 0.00 63 1014.1
20260507030006 65 170 0.0 0.0 0.00 0.00 0.00 62 1014.1
20260507025508 65 170 0.0 0.0 0.00 0.00 0.00 62 1014.1
20260507025003 65 170 0.0 0.0 0.00 0.00 0.00 62 1014.0
20260507024505 66 170 0.0 0.0 0.00 0.00 0.00 61 1014.0
20260507024004 66 170 0.0 0.0 0.00 0.00 0.00 61 1013.9
20260507023600 66 170 0.0 0.0 0.00 0.00 0.00 61 1013.7
20260507023113 66 170 0.0 0.0 0.00 0.00 0.00 60 1013.8
20260507022600 66 170 0.0 0.0 0.00 0.00 0.00 60 1013.6
20260507022057 66 170 0.0 0.0 0.00 0.00 0.00 60 1013.6
20260507021556 66 170 0.0 0.0 0.00 0.00 0.00 60 1013.6
20260507021054 66 170 0.0 0.0 0.00 0.00 0.00 59 1013.7
20260507020553 66 170 0.0 0.0 0.00 0.00 0.00 59 1013.6
20260507020052 67 170 0.0 0.0 0.00 0.00 0.00 59 1013.6
20260507015550 67 170 0.0 0.0 0.00 0.00 0.00 58 1013.5
20260507015050 67 170 0.0 0.0 0.00 0.00 0.00 58 1013.4
20260507014602 67 170 0.0 0.0 0.00 0.00 0.00 58 1013.4
20260507014050 67 170 0.0 0.0 0.00 0.00 0.00 58 1013.5
20260507013549 67 170 0.0 0.0 0.00 0.00 0.00 57 1013.5
20260507013109 67 170 0.0 0.0 0.00 0.00 0.00 57 1013.4
20260507012544 67 170 0.0 0.0 0.00 0.00 0.00 57 1013.4
20260507012044 67 170 0.0 0.0 0.00 0.00 0.00 57 1013.4
20260507011543 67 170 0.0 0.0 0.00 0.00 0.00 57 1013.3
20260507011042 68 170 0.0 0.0 0.00 0.00 0.00 56 1013.4
20260507010640 68 170 0.0 0.0 0.00 0.00 0.00 56 1013.3
20260507010039 68 170 0.0 0.0 0.00 0.00 0.00 56 1013.3
20260507005538 68 170 0.0 0.0 0.00 0.00 0.00 55 1013.3
20260507005037 68 170 0.0 0.0 0.00 0.00 0.00 55 1013.3
20260507004537 68 170 0.0 0.0 0.00 0.00 0.00 55 1013.3
20260507004037 68 170 0.0 0.0 0.00 0.00 0.00 54 1013.4
20260507003536 68 170 0.0 0.0 0.00 0.00 0.00 55 1013.3
20260507003037 68 170 0.0 0.0 0.00 0.00 0.00 55 1013.2
20260507002533 68 170 0.0 0.0 0.00 0.00 0.00 55 1013.2
20260507002032 68 170 0.0 0.0 0.00 0.00 0.00 56 1013.2
20260507001531 68 170 0.0 0.0 0.00 0.00 0.00 56 1013.1
20260507001031 68 170 0.0 0.0 0.00 0.00 0.00 56 1013.2
20260507000533 68 170 0.0 0.0 0.00 0.00 0.00 56 1013.1
20260507000031 68 170 0.0 0.0 0.00 0.00 0.00 56 1013.0
20260506235527 68 170 0.0 0.0 0.00 0.00 0.00 56 1013.0
20260506235027 68 170 0.0 0.0 0.00 0.00 0.00 56 1013.0
20260506234525 69 170 0.0 0.0 0.00 0.00 0.00 56 1012.9
20260506234025 69 170 0.0 0.0 0.00 0.00 0.00 55 1013.0
20260506233523 69 170 0.0 0.0 0.00 0.00 0.00 55 1013.0
20260506233023 69 170 0.0 0.0 0.00 0.00 0.00 55 1012.9
20260506232522 69 170 0.0 0.0 0.00 0.00 0.00 54 1012.9
20260506232018 70 170 0.0 0.0 0.00 0.00 0.00 54 1012.8
20260506231619 70 170 0.0 0.0 0.00 0.00 0.00 54 1012.8
20260506231017 70 170 0.0 0.0 0.00 0.00 0.00 54 1012.8
20260506230514 70 170 0.0 0.0 0.00 0.00 0.00 54 1012.8
20260506230015 70 170 0.0 0.0 0.00 0.00 0.00 53 1012.6
20260506225516 70 170 0.0 0.0 0.00 0.00 0.00 53 1012.5
20260506225011 70 170 0.0 0.0 0.00 0.00 0.00 53 1012.4
20260506224509 71 170 0.0 0.0 0.00 0.00 0.00 53 1012.4
20260506224006 71 170 0.0 0.0 0.00 0.00 0.00 52 1012.2
20260506223505 71 170 0.0 0.0 0.00 0.00 0.00 52 1012.1
20260506223005 72 170 0.0 0.0 0.00 0.00 0.00 51 1012.0
20260506222503 72 170 0.0 0.0 0.00 0.00 0.00 51 1012.0
20260506222002 72 170 0.0 0.0 0.00 0.00 0.00 51 1011.9
20260506221502 72 170 0.0 0.0 0.00 0.00 0.00 51 1011.9
20260506221100 72 170 0.0 0.0 0.00 0.00 0.00 50 1011.8
20260506220600 72 170 0.0 0.0 0.00 0.00 0.00 50 1011.8
20260506220059 72 170 0.0 0.0 0.00 0.00 0.00 50 1011.8
20260506215559 72 170 0.0 0.0 0.00 0.00 0.00 50 1011.8
20260506215056 72 170 0.0 0.0 0.00 0.00 0.00 50 1011.8
20260506214608 72 170 0.0 0.0 0.00 0.00 0.00 49 1011.8
20260506214058 73 170 0.0 0.0 0.00 0.00 0.00 49 1011.7
20260506213556 73 170 0.0 0.0 0.00 0.00 0.00 49 1011.5
20260506213054 73 170 0.0 0.0 0.00 0.00 0.00 48 1011.6
20260506212551 73 170 0.0 0.0 0.00 0.00 0.00 49 1011.5
20260506212054 73 170 0.0 0.0 0.00 0.00 0.00 48 1011.7
20260506211551 73 170 0.0 0.0 0.00 0.00 0.00 48 1011.6
20260506211049 73 170 0.0 0.0 0.00 0.00 0.00 48 1011.7
20260506210548 73 170 0.0 0.0 0.00 0.00 0.00 48 1011.6